Temperature
22 20 20 20 21 22 21 21 20 20 19 18 17 17 16 16 16 16 16 16 17 17 18 17 18 17 17 17 17 17 17 17 16 16 15 15 15 14 14 13 13 13 13 13
21 21 22 22 22 22 21 21 20 19 19 18 17 17 17 16 16 16 16 17 17 17 17 18 18 18 18 17 17 17 17 16 16 15 15 14 14 13 13 13 12 12 12 12
22 22 23 23 22 22 21 21 20 19 18 17 18 18 17 17 16 17 17 17 18 18 18 18 18 18 18 17 17 17 16 16 15 15 14 14 13 13 12 12 12 12 12 12
22 23 23 23 23 22 21 21 20 19 18 16 17 17 17 16 16 17 17 17 18 18 19 19 18 18 18 18 17 17 16 16 15 15 14 13 13 12 12 11 11 11 11 11
23 23 23 23 23 22 20 20 19 18 16 16 16 16 16 16 17 17 17 18 18 19 19 19 19 19 18 18 17 17 16 16 15 14 13 13 12 12 11 11 11 11 11 11
22 23 23 23 22 21 20 18 17 15 15 17 16 16 16 16 17 17 17 19 19 19 19 19 19 19 18 18 17 17 16 16 15 14 13 12 12 11 11 11 11 11 11 11
22 23 23 23 21 21 19 18 17 17 16 16 16 15 15 17 17 17 18 19 20 20 19 19 19 19 18 18 18 17 16 15 14 13 13 12 12 11 11 11 10 10 10 10
22 22 23 23 22 20 19 19 18 19 17 16 16 16 16 18 18 19 19 19 20 19 19 19 19 19 18 18 17 16 16 15 14 13 12 12 11 11 11 11 10 10 10 10
22 22 23 24 23 21 20 18 17 15 16 16 16 16 17 18 18 18 19 19 19 20 20 20 19 19 18 18 17 16 15 14 13 13 12 12 11 11 11 11 10 10 10 10
22 22 23 23 23 22 20 16 15 16 17 18 18 17 17 19 19 18 18 19 20 20 20 20 19 19 18 17 16 15 15 14 13 13 12 12 11 11 11 11 10 10 10 10
21 21 22 22 23 23 21 18 15 14 15 16 17 17 17 17 18 17 18 20 20 20 20 20 19 18 18 17 16 15 14 14 13 12 12 12 11 11 11 10 10 10 10 9
19 18 19 21 22 22 22 21 16 18 17 15 16 17 18 17 17 18 19 20 20 20 20 19 19 18 17 17 16 15 14 13 13 12 12 12 11 11 11 10 10 10 9 9
18 18 19 20 20 21 22 20 17 15 14 14 16 18 18 17 17 18 19 20 21 20 20 19 18 18 17 16 16 15 14 13 13 12 12 11 11 11 10 10 10 9 9 9
19 18 19 20 20 21 21 21 17 17 16 15 16 18 18 18 17 18 19 21 20 20 19 19 18 18 17 16 15 14 14 13 12 12 12 11 11 10 10 10 9 9 9 9
19 20 20 19 20 20 21 21 20 18 17 17 18 17 18 17 16 19 20 20 20 20 19 19 18 18 17 16 15 14 13 13 12 12 11 11 10 10 10 9 9 9 9 8
18 20 20 21 22 21 21 21 21 20 19 18 19 18 17 18 18 18 19 19 20 20 20 19 18 17 17 16 15 14 13 13 12 12 11 11 10 10 9 9 9 9 8 8
17 18 19 19 20 21 21 22 22 22 20 19 19 19 18 17 16 19 20 20 20 20 20 19 18 17 17 16 15 14 13 12 12 11 11 10 10 9 9 9 9 8 8 8
16 16 16 18 21 22 20 21 21 21 21 18 18 18 17 18 21 22 22 21 21 20 20 19 18 17 16 15 15 14 13 12 12 11 11 10 9 9 9 9 8 8 8 8
15 16 15 16 19 20 20 21 21 21 21 19 18 18 18 18 18 20 22 21 21 21 20 19 18 17 16 15 15 14 13 12 12 11 10 10 9 9 9 8 8 8 8 7
15 15 15 16 19 19 20 21 21 21 21 20 19 17 17 17 16 18 23 22 21 21 20 19 18 17 16 15 14 14 13 12 12 11 10 10 9 9 8 8 8 8 7 7
18 16 17 16 17 18 19 20 21 21 19 22 22 21 18 17 20 23 23 22 22 21 20 19 18 17 17 15 14 14 13 12 12 11 10 10 9 8 8 8 8 7 7 7
19 18 17 15 17 18 20 20 20 20 23 24 24 23 22 23 24 23 23 22 22 21 20 19 18 18 16 15 14 14 13 12 12 11 10 10 9 8 8 8 7 7 7 7
16 17 16 16 18 20 21 21 23 23 23 24 24 25 24 23 23 23 23 23 22 21 20 19 18 17 16 15 15 14 13 12 12 11 10 10 9 9 8 7 7 7 7 7
17 15 15 15 17 20 23 23 24 24 24 25 25 24 24 23 24 24 23 23 22 22 20 19 18 17 17 16 15 14 13 12 12 11 10 10 9 9 8 8 7 7 7 8
17 17 15 16 16 19 23 23 22 23 23 24 24 24 24 23 23 23 23 23 23 22 21 19 18 18 17 16 15 14 13 12 12 11 10 10 9 9 9 8 8 8 8 8
14 15 16 16 19 17 19 19 20 21 22 22 22 22 22 22 23 23 23 23 22 21 20 19 18 18 17 16 15 14 13 12 12 11 11 10 9 9 8 8 9 9 8 8
Wind_Speed
3 3 3 7 8 6 5 3 3 1 2 3 3 3 3 2 3 4 5 5 6 6 6 7 7 7 6 5 5 4 3 2 1 1 1 2 2 3 3 4 7 8 9 9
3 4 7 4 4 4 3 3 2 1 4 3 2 1 1 2 2 3 5 6 7 6 5 7 7 7 7 7 6 5 5 3 2 1 1 1 1 2 3 3 5 7 8 8
6 6 3 3 3 4 3 4 4 4 3 5 3 3 1 1 2 3 4 5 6 8 8 8 8 8 7 7 7 6 6 5 3 2 1 1 2 3 3 3 4 5 8 7
4 4 2 3 4 5 3 1 5 6 5 4 5 3 4 3 4 3 4 5 6 7 7 7 7 7 7 7 6 7 6 5 4 2 2 2 1 2 3 3 4 5 6 6
4 2 2 2 2 4 4 7 8 7 6 4 6 3 7 3 4 5 6 7 7 8 8 8 8 7 6 6 6 6 5 4 3 3 3 3 3 3 3 3 5 5 4 5
4 2 2 2 3 6 8 8 8 7 5 3 3 1 6 4 6 6 5 6 7 7 7 7 5 5 5 5 5 5 5 4 4 4 4 4 5 5 5 5 4 4 4 4
7 5 0 3 5 4 6 6 5 5 4 3 1 2 8 8 7 7 8 8 7 6 5 5 5 6 6 6 5 5 5 5 5 5 5 5 6 6 6 6 5 5 4 4
3 6 3 2 5 6 4 7 6 4 4 3 2 4 8 7 7 7 7 7 5 5 5 6 7 7 7 7 6 5 6 5 5 6 6 6 6 5 5 6 5 5 5 6
3 5 4 1 2 8 6 3 6 7 3 1 4 6 8 5 5 5 5 5 6 5 6 7 7 7 6 6 6 6 6 6 7 7 6 6 6 6 6 6 5 5 6 6
6 3 5 3 5 4 5 8 6 6 5 1 4 5 5 7 8 6 5 6 6 6 6 6 6 6 5 5 4 5 6 7 7 6 6 5 6 6 6 5 6 7 6 6
4 3 5 4 2 1 3 5 6 5 5 6 3 7 8 10 9 9 9 8 8 9 8 7 5 4 3 3 4 5 6 6 7 7 6 6 7 6 6 6 7 7 7 7
4 5 2 5 4 2 2 5 7 5 3 5 4 8 6 8 8 9 9 8 8 8 6 5 4 3 4 5 5 6 7 7 8 7 6 7 7 6 6 7 7 7 7 7
6 5 4 8 8 5 2 3 5 6 6 6 5 8 4 2 4 7 8 8 7 7 6 4 4 5 6 6 6 7 7 8 8 6 6 7 7 7 7 8 7 7 7 8
6 5 6 5 7 4 5 2 6 6 5 6 8 9 7 5 7 7 8 8 6 6 6 6 6 7 7 7 7 7 8 7 7 6 6 7 8 7 7 7 7 7 8 8
6 5 7 7 6 3 6 8 6 8 8 9 9 9 11 10 11 9 7 7 6 7 8 9 8 8 8 7 7 7 8 8 6 6 7 8 7 6 6 7 7 8 8 9
4 5 4 4 3 3 6 7 5 6 6 7 5 9 9 6 4 5 7 8 9 10 10 10 10 9 9 9 8 7 8 7 5 6 7 7 6 6 6 7 7 8 9 9
4 7 5 4 5 4 6 5 4 5 6 8 9 9 5 6 10 11 11 10 11 12 11 11 11 10 10 9 8 8 8 6 5 6 7 6 6 6 7 8 8 9 9 9
8 6 5 2 2 4 9 5 6 6 6 8 8 8 8 10 9 7 9 11 12 12 11 11 11 10 8 7 6 6 6 6 6 6 7 6 6 7 7 8 9 10 9 9
5 8 5 4 3 6 10 6 6 6 7 7 9 9 5 2 3 6 10 12 14 13 12 11 11 9 7 7 7 5 6 6 6 7 7 7 6 7 8 9 10 9 9 9
5 5 6 4 4 6 11 5 4 4 6 8 9 10 8 8 3 9 10 12 14 12 10 9 8 6 7 7 6 5 7 6 8 8 7 6 6 7 9 10 10 9 9 10
3 3 3 5 5 9 9 2 6 4 9 7 11 11 12 12 14 9 7 10 13 12 11 9 8 8 8 7 6 7 7 8 8 7 6 6 7 8 9 9 9 9 9 9
3 2 3 4 3 7 4 7 8 11 6 4 10 12 14 16 15 11 9 10 11 11 11 10 9 9 7 6 7 8 9 8 6 5 6 7 7 8 8 8 9 9 9 9
6 8 6 8 8 8 5 9 9 5 6 8 9 12 16 16 15 15 13 12 11 12 11 9 10 9 7 7 8 9 9 6 5 5 7 7 8 8 8 8 9 9 8 7
5 4 4 5 10 10 9 8 9 8 11 12 11 11 12 15 17 15 13 11 11 11 10 9 9 9 9 9 9 10 8 6 6 6 7 7 8 8 8 7 7 7 8 8
7 5 4 7 10 10 9 7 9 9 9 10 10 8 11 14 15 14 13 12 12 11 9 9 11 11 11 8 9 9 7 6 6 7 7 7 7 8 8 8 7 8 9 9
3 5 5 8 8 5 7 10 11 9 9 9 7 7 6 8 13 11 11 10 8 9 8 9 10 10 10 8 8 8 7 7 7 6 7 6 6 7 7 8 9 10 12 14
Wind_Direction
111 81 233 226 201 197 193 194 211 231 53 79 115 147 189 191 189 187 188 181 182 193 190 188 194 196 196 203 206 201 186 185 125 65 47 14 339 333 340 348 358 1 4 5
43 265 244 219 189 176 181 186 192 84 48 82 108 134 182 184 193 207 211 205 195 202 203 205 205 203 205 208 208 206 204 201 195 170 165 210 278 294 293 315 339 353 357 358
218 244 222 169 197 196 213 192 181 153 111 48 29 19 9 267 222 217 218 221 213 209 213 217 215 213 210 213 209 206 204 205 204 174 108 32 359 340 338 334 331 335 341 345
244 250 218 216 222 185 259 235 131 112 90 20 32 344 309 314 308 251 231 227 228 225 222 222 223 223 219 218 204 199 196 200 203 179 185 219 251 278 272 284 294 309 324 332
267 235 232 237 249 147 91 71 84 87 91 49 25 29 300 335 300 268 243 231 232 233 227 226 224 223 216 200 190 187 184 200 208 207 214 227 246 249 273 284 292 304 313 321
262 255 200 165 54 101 122 78 59 51 62 28 349 35 293 266 241 261 256 243 239 238 233 228 217 197 191 176 168 167 178 211 225 231 233 229 247 260 274 284 291 300 306 307
344 342 357 125 95 57 81 85 38 9 14 274 281 259 256 258 239 233 248 252 245 240 231 218 195 183 181 173 170 172 186 223 238 242 246 240 243 246 250 264 271 282 291 292
15 316 283 188 162 161 147 132 154 198 221 273 309 253 256 258 261 249 245 249 243 228 210 203 196 188 186 183 180 184 200 228 242 245 250 248 244 237 245 253 255 263 266 274
179 273 300 266 150 135 138 144 144 123 113 40 288 285 299 264 262 250 241 235 230 212 201 200 196 193 193 194 197 200 209 232 246 247 250 253 247 239 249 258 257 260 263 273
166 248 303 318 73 53 123 137 102 110 131 255 296 280 251 256 246 238 229 226 221 206 205 206 206 207 207 211 219 221 223 233 246 251 250 252 250 246 250 260 267 268 271 272
131 165 316 8 76 173 123 98 102 107 143 152 238 268 227 224 225 221 226 221 207 206 210 215 221 224 226 237 239 240 241 247 258 258 257 260 261 257 259 262 267 271 276 279
124 118 310 293 292 289 194 158 149 147 196 170 183 265 263 239 236 220 224 219 210 213 217 224 229 235 242 248 251 250 252 253 257 260 262 262 264 264 265 267 271 274 277 279
135 102 36 349 344 356 27 123 130 123 118 153 177 263 300 288 225 218 218 218 214 220 223 229 235 239 244 250 256 257 257 257 262 263 264 267 266 262 263 267 274 277 277 280
119 110 154 198 232 267 300 240 153 139 155 195 221 249 284 253 228 227 223 219 215 224 225 229 240 245 248 251 255 258 264 263 264 263 262 264 264 261 262 268 272 274 275 277
115 162 206 232 244 250 256 263 201 192 194 192 229 230 247 231 221 223 219 211 215 231 233 232 235 242 246 253 258 259 265 270 265 263 263 263 266 266 265 268 271 273 274 277
114 169 185 272 266 266 264 268 231 206 196 213 243 258 250 238 206 228 221 209 221 233 235 236 236 238 241 244 250 257 263 267 263 260 264 269 271 270 267 269 273 276 276 277
142 143 147 256 305 355 300 258 218 222 207 184 209 239 229 197 210 221 219 212 220 229 231 231 231 230 233 235 237 245 254 265 266 263 268 271 271 271 272 276 279 279 279 279
145 138 147 182 46 253 250 246 218 227 239 210 225 242 215 214 223 233 214 208 222 227 228 230 230 230 231 230 233 242 253 259 262 267 269 270 272 275 278 280 280 280 279 279
145 137 128 138 190 271 294 273 185 189 259 221 220 238 211 119 40 291 231 212 220 222 220 223 221 219 222 227 230 235 252 258 263 265 264 267 270 277 282 283 282 281 280 280
76 105 122 140 170 234 253 267 166 120 276 242 202 211 172 133 187 254 237 212 223 226 220 220 215 207 218 227 213 221 245 254 258 258 258 262 266 272 278 280 281 280 278 279
35 62 141 176 213 256 255 233 130 162 243 240 199 199 175 187 212 227 226 211 217 219 216 209 200 205 218 213 194 223 241 247 249 251 257 263 267 272 275 277 277 280 282 284
198 186 199 151 192 261 248 148 183 220 240 232 210 202 196 216 231 239 242 231 221 216 212 199 198 214 217 199 197 227 243 247 247 249 259 267 272 277 282 279 283 283 281 285
201 194 190 189 220 246 239 220 243 243 247 244 223 218 209 221 234 238 240 236 224 215 209 197 197 211 218 207 201 224 242 241 240 249 262 272 280 280 279 279 283 289 284 281
265 182 175 241 265 266 274 266 265 243 238 250 238 228 209 219 233 237 239 234 222 214 205 192 191 208 223 217 213 224 233 224 227 248 264 276 285 289 289 282 277 280 282 283
238 194 209 255 274 296 302 304 305 301 286 277 267 243 224 224 236 237 237 232 221 210 196 187 196 211 223 219 223 227 222 212 228 248 264 277 280 284 291 289 278 276 271 262
251 203 206 244 258 255 292 324 332 328 326 320 311 303 278 235 245 249 246 241 221 206 192 193 202 214 223 217 227 228 215 207 222 248 263 271 279 285 287 295 301 278 265 270
Height
1510 1515 1518 1514 1512 1511 1514 1518 1521 1520 1518 1521 1524 1525 1525 1525 1526 1527 1528 1528 1528 1530 1531 1532 1534 1535 1537 1538 1538 1539 1539 1539 1538 1537 1536 1534 1531 1529 1526 1524 1522 1520 1519 1518
1514 1516 1508 1506 1507 1509 1512 1518 1520 1521 1519 1522 1526 1526 1525 1525 1526 1527 1527 1527 1528 1529 1530 1531 1533 1534 1535 1536 1537 1538 1538 1537 1537 1535 1534 1532 1529 1526 1524 1521 1519 1517 1516 1515
1513 1509 1503 1505 1508 1511 1513 1516 1518 1522 1522 1524 1525 1528 1527 1525 1525 1525 1526 1526 1527 1527 1528 1530 1531 1532 1534 1535 1536 1536 1536 1535 1535 1533 1531 1529 1527 1524 1522 1519 1517 1515 1513 1512
1507 1503 1503 1505 1507 1508 1516 1510 1512 1519 1527 1537 1534 1542 1530 1526 1524 1523 1524 1524 1525 1526 1527 1529 1530 1531 1532 1533 1534 1534 1534 1533 1532 1531 1529 1527 1524 1522 1519 1517 1515 1513 1511 1510
1506 1503 1503 1505 1505 1505 1513 1511 1515 1522 1531 1539 1540 1544 1537 1527 1526 1522 1521 1521 1522 1523 1525 1526 1527 1529 1530 1531 1531 1531 1531 1530 1529 1528 1526 1524 1521 1519 1517 1515 1513 1511 1509 1507
1503 1500 1501 1502 1503 1504 1510 1516 1523 1531 1538 1548 1545 1548 1542 1530 1523 1520 1517 1518 1518 1520 1522 1523 1525 1526 1527 1528 1528 1528 1528 1528 1527 1525 1523 1521 1519 1516 1514 1512 1510 1508 1506 1504
1508 1502 1500 1500 1506 1509 1512 1527 1544 1547 1555 1553 1545 1547 1541 1521 1516 1516 1515 1515 1516 1518 1519 1520 1522 1523 1524 1525 1525 1526 1525 1525 1523 1522 1520 1518 1516 1514 1511 1509 1507 1504 1502 1500
1519 1519 1502 1499 1503 1510 1514 1523 1543 1551 1555 1552 1545 1546 1530 1514 1512 1512 1512 1513 1514 1515 1517 1518 1519 1520 1522 1523 1523 1523 1522 1521 1520 1518 1517 1515 1513 1511 1509 1506 1504 1501 1499 1497
1518 1516 1500 1497 1498 1504 1515 1522 1526 1543 1548 1552 1546 1537 1522 1510 1510 1510 1510 1511 1511 1513 1514 1516 1517 1518 1519 1520 1520 1520 1519 1518 1517 1515 1513 1511 1510 1508 1505 1503 1501 1499 1496 1494
1508 1514 1504 1499 1499 1503 1507 1519 1533 1543 1553 1554 1544 1538 1532 1514 1510 1508 1508 1509 1509 1511 1513 1514 1515 1517 1517 1518 1517 1517 1516 1515 1513 1512 1510 1508 1506 1504 1502 1500 1498 1495 1493 1491
1506 1516 1512 1505 1505 1507 1512 1520 1532 1542 1542 1553 1555 1542 1513 1508 1505 1505 1505 1506 1508 1509 1511 1513 1514 1515 1515 1515 1515 1514 1513 1511 1510 1508 1507 1505 1503 1501 1499 1496 1494 1491 1489 1487
1508 1518 1522 1512 1503 1502 1503 1510 1524 1533 1540 1546 1548 1537 1502 1501 1500 1502 1503 1504 1506 1508 1510 1511 1512 1513 1513 1512 1512 1511 1509 1508 1506 1505 1503 1501 1499 1497 1494 1492 1489 1487 1484 1482
1507 1518 1530 1527 1520 1508 1506 1508 1516 1527 1538 1546 1545 1529 1500 1499 1499 1499 1500 1502 1504 1506 1508 1509 1510 1510 1510 1510 1508 1507 1505 1504 1502 1500 1498 1496 1494 1492 1490 1487 1485 1482 1479 1476
1501 1516 1525 1530 1524 1512 1510 1507 1515 1521 1533 1537 1531 1518 1503 1499 1498 1497 1498 1500 1502 1504 1506 1507 1507 1508 1507 1506 1505 1503 1501 1500 1498 1496 1494 1492 1489 1487 1484 1482 1479 1476 1473 1470
1499 1511 1512 1512 1508 1508 1507 1504 1506 1512 1515 1521 1513 1511 1500 1495 1494 1494 1495 1498 1500 1502 1503 1504 1504 1504 1503 1502 1501 1499 1497 1495 1493 1491 1489 1487 1484 1482 1479 1476 1473 1470 1467 1464
1499 1506 1508 1508 1503 1505 1505 1499 1499 1502 1504 1507 1505 1503 1490 1490 1492 1493 1494 1495 1497 1498 1499 1500 1500 1500 1499 1498 1496 1495 1493 1491 1488 1486 1484 1481 1479 1476 1473 1470 1467 1464 1461 1457
1503 1507 1514 1517 1508 1504 1510 1497 1495 1495 1494 1498 1502 1495 1487 1489 1489 1489 1490 1492 1493 1494 1496 1496 1496 1496 1495 1494 1492 1490 1488 1486 1484 1481 1479 1476 1473 1470 1468 1464 1461 1458 1454 1451
1502 1508 1516 1518 1512 1518 1506 1488 1488 1490 1488 1489 1488 1486 1484 1483 1484 1486 1487 1488 1489 1490 1491 1491 1491 1491 1490 1489 1488 1486 1484 1482 1479 1476 1474 1471 1468 1465 1462 1459 1455 1452 1448 1445
1496 1505 1516 1522 1520 1513 1497 1485 1485 1489 1488 1482 1483 1481 1482 1483 1485 1484 1483 1484 1484 1485 1486 1486 1486 1486 1486 1485 1483 1482 1480 1477 1474 1472 1469 1466 1463 1459 1456 1452 1449 1446 1443 1440
1498 1501 1512 1520 1518 1518 1498 1481 1480 1485 1491 1476 1477 1478 1480 1482 1489 1481 1477 1478 1479 1479 1480 1481 1482 1482 1481 1480 1479 1477 1475 1472 1470 1467 1464 1460 1457 1454 1450 1447 1444 1441 1438 1434
1502 1506 1510 1515 1516 1506 1483 1479 1482 1496 1491 1471 1471 1472 1474 1476 1474 1472 1472 1472 1473 1474 1475 1476 1477 1477 1477 1476 1474 1472 1470 1467 1465 1462 1458 1455 1452 1448 1445 1442 1439 1436 1433 1430
1501 1506 1509 1515 1515 1506 1477 1479 1482 1478 1467 1467 1466 1466 1467 1466 1466 1467 1467 1467 1468 1468 1469 1471 1471 1471 1472 1471 1470 1468 1465 1463 1460 1457 1453 1450 1446 1443 1440 1437 1434 1431 1428 1425
1496 1495 1497 1499 1495 1479 1475 1474 1470 1468 1466 1464 1462 1461 1461 1461 1461 1461 1461 1462 1462 1463 1464 1465 1466 1467 1467 1466 1464 1463 1461 1458 1456 1452 1449 1445 1442 1438 1435 1432 1429 1426 1424 1420
1487 1485 1488 1489 1480 1472 1470 1468 1465 1463 1461 1459 1458 1457 1456 1455 1455 1455 1455 1456 1456 1457 1458 1459 1461 1461 1461 1460 1459 1457 1456 1453 1451 1448 1444 1441 1437 1434 1431 1428 1425 1422 1419 1416
1483 1483 1485 1484 1475 1470 1466 1465 1463 1460 1457 1455 1453 1452 1451 1450 1449 1449 1449 1449 1449 1450 1452 1453 1454 1455 1455 1455 1454 1453 1451 1448 1446 1443 1440 1436 1432 1429 1426 1423 1420 1417 1414 1412
1480 1482 1483 1480 1471 1471 1468 1464 1460 1457 1453 1451 1449 1447 1446 1445 1444 1444 1444 1443 1443 1444 1446 1448 1449 1451 1451 1450 1449 1448 1446 1444 1441 1438 1435 1431 1428 1424 1421 1418 1415 1413 1410 1407